User: anonymous   Login
Location: Vancouver
(49.2500°N, 123.1330°W)
Time: 18:54:06
(UTC-08:00)
Language:

SO-67 - Orbit

View from above orbital plane
View from above orbital plane
View from above satellite
View from above satellite

Ground track
Ground track

The orbit data is extracted from the following two-line orbital elements,

1 35870U 09049F   17051.81014095  .00006576  00000-0  11077-3 0  9990
2 35870  97.1097  69.6574 0003859 112.6455   8.2441 15.52023186415163
Epoch (UTC): 20 February 2017 19:26:36
Eccentricity: 0.0003859
inclination: 97.1097°
perigee height: 408 km
apogee height: 413 km
right ascension of ascending node: 69.6574°
argument of perigee: 112.6455°
revolutions per day: 15.52023186
mean anomaly at epoch: 8.2441°
orbit number at epoch: 41516

The dashed part of the orbit path shows where the satellite is in the earth's shadow,  

DLR